Location: Cointrin
(46.2167°N, 6.1167°E)
Time: 16:06:40
(UTC+00:00)

In-Cosmos 22 Rocket - Pass Details

Date: 08 February 2023
Orbit: 789 x 888 km, 81.2° (Epoch: 21 March)

Event Time Altitude Azimuth Distance (km) Brightness Sun altitude
Rises 17:11:56 0° 179° (S) 3,474 7.6 -4.4°
Reaches altitude 10° 17:14:23 10° 176° (S) 2,544 6.9 -4.8°
Maximum altitude 17:20:07 64° 96° (E) 980 4.3 -5.7°
Drops below altitude 10° 17:25:52 10° 17° (NNE) 2,553 6.4 -6.7°
Sets 17:28:20 0° 14° (NNE) 3,488 7.1 -7.1°
